Home   Weather   Ehingen (Donau)   Past weeks

Flag for Germany Past Weather in Ehingen (Donau), Baden-Württemberg, Germany — Yesterday and Last 2 Weeks

Now
27 °F

Ice fog.


Feels Like: 21 °F
Forecast: 23 / 42 °F
Wind: 5 mph from Southwest

Location: Laupheim Airport

Current Time: Dec 5, 2016 at 9:49:46 am

Latest Report: Dec 5, 2016 at 9:20 am


Visibility: 0 mi

Pressure: 30.33 "Hg (28.44 "Hg at 508m altitude)

Humidity: 100%

Dew Point: 27 °F

Location of Ehingen (Donau)Location

Past Weather in Ehingen (Donau) — Graph

°F

Ehingen (Donau) Temperature Yesterday

Maximum temperature yesterday: 30 °F (at 12:20 pm)
Minimum temperature yesterday: 28 °F (at 12:20 am)
Average temperature yesterday: 29 °F

High & Low Weather Summary for the Past Weeks

 TemperatureHumidityPressure
High48 °F (Nov 20, 3:20 pm)100% (Nov 20, 8:20 am)30.51 "Hg (Nov 20, 8:20 am)
Low19 °F (Nov 30, 1:20 am)51% (Nov 29, 2:20 pm)29.65 "Hg (Nov 21, 11:20 am)
Average36 °F89%30.10 "Hg
* Reported Nov 20 8:20 am — Dec 5 8:20 am, Ehingen (Donau), Weather by CustomWeather, © 2016

Note: Actual official high and low records may vary slightly from our data, if they occured in-between our weather recording intervals... More about our weather records

Advertising

Ehingen (Donau) Weather History for the Previous 24 Hours

Scroll right to see more
 ConditionsComfort  
Time TempWeatherWind HumidityBarometerVisibility
8:20 am
Mon, Dec 5
27 °FIce fog.3 mph100%30.30 "Hg0 mi
6:20 am27 °FIce fog.5 mph100%30.30 "Hg0 mi
5:20 am27 °FIce fog.2 mph100%30.30 "Hg0 mi
4:20 am27 °FIce fog.3 mph100%30.30 "Hg0 mi
3:20 am27 °FFog.3 mph100%30.30 "Hg1 mi
2:20 am28 °FIce fog.2 mph93%30.30 "Hg1 mi
1:20 am28 °FIce fog.2 mph93%30.30 "Hg1 mi
12:20 am28 °FIce fog.3 mph93%30.30 "Hg1 mi
11:20 pm
Sun, Dec 4
28 °FIce fog.3 mph93%30.30 "Hg2 mi
10:20 pm28 °FIce fog.5 mph93%30.30 "Hg2 mi
9:20 pm28 °FIce fog.5 mph93%30.30 "Hg2 mi
8:20 pm28 °FIce fog.6 mph93%30.30 "Hg3 mi
7:20 pm28 °FIce fog.7 mph93%30.30 "Hg3 mi
6:20 pm30 °FLow clouds.6 mph86%30.30 "Hg4 mi
5:20 pm30 °FIce fog.6 mph93%30.27 "Hg3 mi
4:20 pm30 °FIce fog.6 mph93%30.27 "Hg3 mi
3:20 pm30 °FIce fog.6 mph93%30.27 "Hg3 mi
2:20 pm30 °FIce fog.7 mph86%30.27 "Hg3 mi
1:20 pm30 °FIce fog.6 mph86%30.27 "Hg3 mi
12:20 pm30 °FIce fog.5 mph86%30.27 "Hg2 mi
11:20 am28 °FIce fog.6 mph93%30.27 "Hg2 mi
10:20 am28 °FIce fog.5 mph93%30.27 "Hg2 mi
9:20 am28 °FIce fog.5 mph93%30.27 "Hg2 mi
Weather by CustomWeather, © 2016

See weather overviewHow to use our weather pages